This demonstration page uses our WeatherBlox Daily Observations layout. Learn more.

Left ArrowRight Arrow

40.97296, -117.73568

Hourly Observations for March 22, 2016

Temp ( °F °C ) Dew Point ( °F °C ) Humidity (%) Winds ( mph kmh ) Pressure ( in mb ) Visibility ( mi km ) Precip ( " mm )
12:56 am 00:56 Mostly Cloudy 35 1.7 32 0 89 89 ESE 12 19 29.83 1010 10 16 0.01 0.25
1:56 am 01:56 Mostly Cloudy 36 2.2 30 -1.1 79 79 VRB 5 7 29.83 1010 10 16 0.00 0.03
2:56 am 02:56 Partly Cloudy 36 2.2 27 -2.8 70 70 NNW 5 7 29.83 1010 10 16 0.00 0.03
3:56 am 03:56 Mostly Clear 35 1.7 27 -2.8 72 72 SW 5 7 29.84 1010 10 16 0.00 0.00
4:56 am 04:56 Cloudy 34 1.1 27 -2.8 76 76 SW 7 11 29.85 1011 10 16 0.00 0.00
5:56 am 05:56 Cloudy 35 1.7 28 -2.2 76 76 WSW 10 17 29.88 1012 10 16 0.01 0.25
6:56 am 06:56 Cloudy 35 1.7 27 -2.8 72 72 W 10 17 29.92 1013 10 16 0.00 0.00
7:20 am 07:20 Cloudy with Light Snow 34 1 27 -3 75 75 W 15 24 30.03 1017 5 8 0.00 0.00
7:37 am 07:37 Cloudy 34 1.1 27 -2.8 76 76 W 10 17 30.03 1017 10 16 0.00 0.03
7:56 am 07:56 Cloudy 35 1.7 27 -2.8 72 72 W 10 17 29.95 1014 10 16 0.00 0.03
8:56 am 08:56 Cloudy 36 2.2 28 -2.2 73 73 W 15 24 29.99 1016 10 16 0.00 0.00
9:56 am 09:56 Cloudy 37 2.8 25 -3.9 62 62 NW 15 24 30.02 1017 10 16 0.00 0.03
10:56 am 10:56 Partly Cloudy 42 5.6 24 -4.4 49 49 WNW 16 26 30.02 1017 10 16 0.00 0.00
11:56 am 11:56 Mostly Cloudy 42 5.6 21 -6.1 43 43 W 16 26 30.04 1017 10 16 0.00 0.00
12:56 pm 12:56 Cloudy 43 6.1 20 -6.7 40 40 NW 10 17 30.04 1017 10 16 0.00 0.00
1:56 pm 13:56 Partly Cloudy 45 7.2 20 -6.7 37 37 W 14 22 30.03 1017 10 16 0.00 0.00
2:56 pm 14:56 Partly Cloudy 46 7.8 22 -5.6 38 38 WSW 9 15 30.03 1017 10 16 0.00 0.00
3:22 pm 15:22 Cloudy 41 5 25 -3.9 53 53 N 14 22 30.06 1018 10 16 0.00 0.00
3:56 pm 15:56 Mostly Cloudy 43 6.1 21 -6.1 42 42 W 13 20 30.06 1018 10 16 0.00 0.00
4:56 pm 16:56 Mostly Cloudy with Light Rain 39 3.9 25 -3.9 57 57 NNW 22 35 30.10 1019 9 14 0.00 0.03
5:56 pm 17:56 Mostly Cloudy 37 2.8 28 -2.2 70 70 N 8 13 30.14 1021 10 16 0.00 0.03
6:15 pm 18:15 Cloudy with Light Snow 35 1.7 29 -1.7 78 78 N 13 20 30.21 1023 3 4 0.00 0.03
6:23 pm 18:23 Cloudy with Light Snow 36 2 28 -2 75 75 NNW 6 9 30.18 1022 3 5 0.00 0.00
6:56 pm 18:56 Cloudy 36 2.2 28 -2.2 73 73 VRB 5 7 30.16 1021 10 16 0.00 0.03
7:56 pm 19:56 Cloudy 34 1.1 27 -2.8 76 76 SE 5 7 30.18 1022 10 16 0.00 0.00
8:56 pm 20:56 Mostly Cloudy 33 0.6 26 -3.3 75 75 NNW 5 7 30.20 1023 10 16 0.00 0.00
9:56 pm 21:56 Partly Cloudy 32 0 26 -3.3 79 79 Calm 30.22 1023 10 16 0.00 0.00
10:56 pm 22:56 Clear 30 -1.1 26 -3.3 85 85 Calm 30.24 1024 10 16 0.00 0.00
11:56 pm 23:56 Mostly Clear 25 -3.9 23 -5 92 92 WNW 3 6 30.26 1025 10 16 0.00 0.00

Powered by AerisWeather